Regional Weather Roundup
Issued by NWS

Home | Current Version | Previous Version | Text Only | Print | Product List | Glossary Off
Versions: 1 2 3 4 5 6 7 8 9 10 11 12 13 14 15 16 17 18 19 20 21 22 23 24 25 26 27 28 29 30 31 32 33 34 35 36 37 38 39 40 41 42 43 44 45 46 47 48 49 50

000
ASUS43 KMPX 122201
RWRMN
WEATHER ROUNDUP FOR MINNESOTA
NATIONAL WEATHER SERVICE TWIN CITIES/CHANHASSEN MN
500 PM CDT SAT JUL 12 2014


NOTE: "FAIR" INDICATES FEW OR NO CLOUDS BELOW 12,000 FEET WITH NO
SIGNIFICANT WEATHER AND/OR OBSTRUCTIONS TO VISIBILITY. N/A MEANS
CURRENT SKY AND/OR WEATHER CONDITIONS ARE NOT AVAILABLE.

MNZ060>063-068>070-122300-
   Twin Cities Metro

CITY           SKY/WX    TMP DP  RH WIND       PRES   REMARKS
TWIN CITIES    CLOUDY    72  68  87 W6        29.94F
ST PAUL        LGT RAIN  71  67  87 CALM      29.94F
CRYSTAL        LGT RAIN  73  67  81 W5        29.93F
BLAINE         CLOUDY    73  72  94 SW5       29.94F
LAKEVILLE      CLOUDY    70  64  83 NW6       29.95F
EDEN PRAIRIE   LGT RAIN  72  67  84 NW3       29.94F
SOUTH ST PAUL  LGT RAIN  72  67  84 W6        29.95F
LAKE ELMO      DRIZZLE   70  68  94 CALM      29.97F
$$
MNZ001>005-007-008-013>017-022>024-027-028-122300-
   Northwest Minnesota

CITY           SKY/WX    TMP DP  RH WIND       PRES   REMARKS
BEMIDJI        MOSUNNY   75  54  47 W18       29.93S
HALLOCK        SUNNY     81  50  34 W22G28    29.85F
ROSEAU         SUNNY     79  55  44 W20G29    29.85F
WARROAD        SUNNY     75  57  53 W17G25    29.84F
THIEF RVR FALL MOSUNNY   77  54  44 W20G26    29.90F
CROOKSTON      MOSUNNY   79  57  47 NW22      29.91F
FOSSTON        MOSUNNY   77  55  47 W10G20    29.93F
DETROIT LAKES  MOSUNNY   75  57  53 NW14G20   29.98F
MOORHEAD       MOSUNNY   79  57  47 W14       29.95F
PARK RAPIDS    PTSUNNY   75  57  53 W16       29.95F
$$
MNZ006-009>011-018-025>026-122300-
   North Central Minnesota

CITY           SKY/WX    TMP DP  RH WIND       PRES   REMARKS
BAUDETTE       MOSUNNY   76  54  46 VRB7G18   29.87S
FLAG ISLAND    MOSUNNY   75  52  43 SW22G29   29.79F
INTL FALLS     PTSUNNY   73  56  54 SW10G20   29.85F
WASKISH        MOSUNNY   75  59  57 SW17      29.89F
BIG FORK       PTSUNNY   75  57  53 SW10      29.90F
LONGVILLE      CLOUDY    75  61  60 W9        29.92F
GRAND RAPIDS   CLOUDY    73  57  56 SW8       29.91F
CRANE LAKE     PTSUNNY   72  55  56 SW3       29.88F
ORR            PTSUNNY   75  54  46 SW8       29.86F
COOK           PTSUNNY   73  55  53 SW9       29.89F
$$
MNZ012-019>021-037-122300-
   Northeast Minnesota

CITY           SKY/WX    TMP DP  RH WIND       PRES   REMARKS
DULUTH         CLOUDY    73  58  59 SW8       29.92F
ELY            PTSUNNY   73  54  49 W9        29.89F
HIBBING        CLOUDY    75  57  53 W8        29.90F
EVELETH        CLOUDY    72  55  56 W12       29.91F
DULUTH HARBOR  CLOUDY    73  64  73 S7        29.91F
TWO HARBORS    CLOUDY    72  57  60 W7        29.89F
SILVER BAY     CLOUDY    70  61  73 S7        29.88F
GRAND MARAIS     N/A     56  49  77 W5        29.88F
G MARAIS ARPRT CLOUDY    64  52  63 S6        29.92F
$$
MNZ029>031-032-039>041-046>048-054>057-064-122300-
   West Central Minnesota

CITY           SKY/WX    TMP DP  RH WIND       PRES   REMARKS
FERGUS FALLS   MOSUNNY   77  54  44 W12       29.97F
WHEATON        SUNNY     75  61  60 W7        30.00F
MORRIS         MOSUNNY   77  63  61 W8        29.98F
ALEXANDRIA     CLOUDY    73  60  63 W9        29.99F
ELBOW LAKE     FAIR      75  61  60 NW8       29.98F
WADENA         PTSUNNY   73  59  60 W12G17    29.96F
GLENWOOD       PTSUNNY   75  61  60 W10       29.99F
APPLETON       MOSUNNY   79  63  57 W8        29.98F
BENSON         PTSUNNY   77  61  57 NW8       29.99S
ORTONVILLE     MOSUNNY   79  63  57 W8        29.99F
MADISON        MOSUNNY   79  64  61 W6        30.00F
WILLMAR        FAIR      75  61  60 NW9       29.99S
$$
MNZ033>034-036-042>043-049>051-058-059-122300-
   Central Minnesota

CITY           SKY/WX    TMP DP  RH WIND       PRES   REMARKS
ST CLOUD       CLOUDY    74  62  66 W9        29.95F
SAUK CENTRE    FAIR      73  60  61 W10       29.97F
PAYNESVILLE    HVY RAIN  72  62  70 W7        29.98S
AITKIN         CLOUDY    75  63  64 W6        29.92F
PINE RIVER     CLOUDY    73  59  60 W7        29.97F
BRAINERD       CLOUDY    78  58  49 W16       29.94F
STAPLES        CLOUDY    72  55  56 W12       29.96F
LONG PRAIRIE   FAIR      73  57  56 W9        29.97F
LITTLE FALLS   CLOUDY    73  55  53 W9        29.96F
LITCHFIELD     CLOUDY    75  64  69 W5        29.97F
BUFFALO        CLOUDY    73  62  68 W7        29.97S
MAPLE LAKE     CLOUDY    73  66  78 CALM      29.95F
$$
MNZ037-044-045-052-053-122300-
   East Central Minnesota

CITY           SKY/WX    TMP DP  RH WIND       PRES   REMARKS
PRINCETON      CLOUDY    72  64  78 W7        29.95F
MORA           CLOUDY    70  61  73 W5        29.95F
CAMBRIDGE      CLOUDY    73  63  68 SW5       29.92F
RUSH CITY      CLOUDY    70  63  78 CALM      29.95F
MOOSE LAKE     CLOUDY    72  59  64 SW3       29.91F
HINCKLEY       FAIR      72  63  73 W3        29.94F
CLOQUET        CLOUDY    72  55  56 W5        29.93F
MCGREGOR       CLOUDY    72  61  68 W6        29.93F
$$
MNZ071>073-080-081-089-090-097-098-122300-
   Southwest Minnesota

CITY           SKY/WX    TMP DP  RH WIND       PRES   REMARKS
MONTEVIDEO     MOSUNNY   79  77  94 NW6       30.00S
GRANITE FALLS  PTSUNNY   74  64  71 NW8       30.01R
CANBY          MOSUNNY   77  65  67 CALM      30.02S
MARSHALL       MOSUNNY   73  64  73 NW8       30.00R
REDWOOD FALLS  CLOUDY    74  66  76 N5        29.97F
OLIVIA         CLOUDY    73  64  73 NW7       29.98R
PIPESTONE      MOSUNNY   79  63  57 N5        30.02R
WINDOM         MOSUNNY   75  61  60 N3        29.99F
WORTHINGTON    MOSUNNY   79  66  65 NE6       30.01F
JACKSON        PTSUNNY   79  64  61 NE5       30.00S
TRACY          PTSUNNY   75  68  77 NW7       30.01R
SLAYTON        MOSUNNY   75  61  61 CALM      30.02S
$$
MNZ065>067-074>077-082>085-091>093-122300-
   South Central Minnesota

CITY           SKY/WX    TMP DP  RH WIND       PRES   REMARKS
MANKATO        CLOUDY    72  63  73 NW7       29.96F
NEW ULM        PTSUNNY   72  70  94 CALM      29.96F
ST JAMES       MOSUNNY   75  64  69 CALM      29.98F
FAIRMONT       MOSUNNY   79  64  61 N5        29.98F
GLENCOE        CLOUDY    73  66  79 N6        29.95F
FARIBAULT      PTSUNNY   73  64  73 CALM      29.97F
OWATONNA       PTSUNNY   73  64  73 N6        29.97F
WASECA         PTSUNNY   72  61  68 NW3       29.98F
ALBERT LEA     PTSUNNY   75  70  83 SW3       29.97F
$$
MNZ078>079-086>088-094>096-122300-
   Southeast Minnesota

CITY           SKY/WX    TMP DP  RH WIND       PRES   REMARKS
ROCHESTER      CLOUDY    68  65  90 S5        29.99F
RED WING       CLOUDY    72  64  78 CALM      29.95S
STANTON        CLOUDY    72  66  81 N3        29.95F
DODGE CENTER   PTSUNNY   73  68  83 W8        29.98F
WINONA         RAIN      70  68  94 SE3       29.99S
AUSTIN         PTSUNNY   72  66  83 SW5       29.98S
PRESTON        LGT RAIN  65  64  94 CALM      30.00F
$$
ABBREVIATIONS USED IN REMARKS
   TC - TEMPERATURES IN CELSIUS
  WCI - WIND CHILL INDEX
   HX - HEAT INDEX
  VSB - VISIBILITY
$$


USA.gov is the U.S. government's official web portal to all federal, state and local government web resources and services.